�������l�o���
Date,Time,MP-1(��Sv/h),MP-2(��Sv/h),MP-3(��Sv/h),MP-4(��Sv/h),MP-5(��Sv/h),MP-6(��Sv/h),MP-7(��Sv/h),MP-8(��Sv/h),����,����(m/s),���J
2015/09/11,00:00,1.665,2.610,2.998,2.832,2.843,0.903,1.557,1.450,���쓌,1.5,��
2015/09/11,00:10,1.667,2.612,2.998,2.832,2.845,0.905,1.560,1.450,�쓌,1.7,��
2015/09/11,00:20,1.668,2.613,3.000,2.835,2.850,0.905,1.560,1.450,�쓌,1.5,��
2015/09/11,00:30,1.668,2.617,3.005,2.840,2.855,0.905,1.560,1.453,���쓌,2.5,��
2015/09/11,00:40,1.670,2.615,3.005,2.838,2.853,0.905,1.563,1.452,�쓌,1.8,��
2015/09/11,00:50,1.672,2.620,3.005,2.838,2.858,0.905,1.565,1.453,��쓌,1.4,��
2015/09/11,01:00,1.668,2.617,3.007,2.840,2.860,0.903,1.565,1.453,���쓌,1.7,��
2015/09/11,01:10,1.667,2.620,3.010,2.840,2.863,0.903,1.565,1.453,���쓌,1.7,��
2015/09/11,01:20,1.670,2.622,3.012,2.842,2.860,0.905,1.565,1.455,��,2.6,��
2015/09/11,01:30,1.673,2.622,3.007,2.845,2.862,0.903,1.565,1.453,���쓌,1.3,��
2015/09/11,01:40,1.672,2.618,3.015,2.845,2.865,0.905,1.563,1.453,��,1.7,��
2015/09/11,01:50,1.675,2.618,3.015,2.845,2.865,0.905,1.563,1.455,���쓌,1.3,��
2015/09/11,02:00,1.673,2.623,3.017,2.843,2.868,0.903,1.565,1.458,���쓌,1.7,��
2015/09/11,02:10,1.673,2.623,3.022,2.848,2.868,0.905,1.563,1.457,���k��,1.5,��
2015/09/11,02:20,1.673,2.623,3.020,2.848,2.870,0.905,1.565,1.453,�쓌,2.8,�L
2015/09/11,02:30,1.663,2.583,2.958,2.797,2.787,0.890,1.542,1.440,-,CALM,�L
2015/09/11,02:40,1.638,2.532,2.878,2.725,2.665,0.882,1.522,1.428,��,9.9,�L
2015/09/11,02:50,1.633,2.533,2.870,2.713,2.638,0.880,1.515,1.428,���k��,5.2,�L
2015/09/11,03:00,1.637,2.527,2.855,2.707,2.620,0.875,1.505,1.425,���쓌,4.3,�L
2015/09/11,03:10,1.623,2.503,2.807,2.677,2.565,0.873,1.493,1.413,���k��,3.6,�L
2015/09/11,03:20,1.595,2.473,2.748,2.650,2.512,0.868,1.488,1.413,�k,2.2,�L
2015/09/11,03:30,1.602,2.488,2.737,2.657,2.485,0.872,1.493,1.417,�k�k��,6.4,�L
2015/09/11,03:40,1.608,2.502,2.742,2.675,2.478,0.873,1.497,1.417,�k�k��,5.5,�L
2015/09/11,03:50,1.610,2.505,2.752,2.685,2.473,0.872,1.495,1.422,�k�k��,4.1,�L
2015/09/11,04:00,1.615,2.495,2.742,2.683,2.467,0.870,1.497,1.422,�k,6.4,�L
2015/09/11,04:10,1.618,2.508,2.752,2.702,2.472,0.873,1.502,1.422,�k�k��,5.4,�L
2015/09/11,04:20,1.623,2.527,2.773,2.710,2.498,0.875,1.505,1.425,�k�k��,4.9,�L
2015/09/11,04:30,1.632,2.535,2.783,2.717,2.518,0.878,1.512,1.427,�k��,6.0,�L
2015/09/11,04:40,1.640,2.548,2.803,2.730,2.538,0.878,1.513,1.430,�k��,6.3,�L
2015/09/11,04:50,1.640,2.553,2.820,2.742,2.560,0.878,1.518,1.428,�k��,7.5,�L
2015/09/11,05:00,1.643,2.553,2.828,2.747,2.575,0.882,1.517,1.430,�k��,7.1,�L
2015/09/11,05:10,1.645,2.560,2.833,2.750,2.585,0.880,1.518,1.430,�k��,7.1,�L
2015/09/11,05:20,1.628,2.518,2.783,2.703,2.542,0.875,1.512,1.425,�k��,7.5,�L
2015/09/11,05:30,1.612,2.502,2.758,2.683,2.515,0.870,1.503,1.422,�k��,4.3,�L
2015/09/11,05:40,1.617,2.512,2.758,2.683,2.500,0.867,1.502,1.422,�k��,7.8,�L
2015/09/11,05:50,1.617,2.518,2.765,2.688,2.508,0.865,1.498,1.420,�k��,7.2,�L
2015/09/11,06:00,1.618,2.517,2.770,2.692,2.512,0.863,1.503,1.423,�k��,8.9,�L
2015/09/11,06:10,1.622,2.517,2.767,2.688,2.502,0.858,1.495,1.413,�k��,7.5,�L
2015/09/11,06:20,1.622,2.507,2.742,2.673,2.453,0.845,1.483,1.405,�k��,7.4,�L
2015/09/11,06:30,1.620,2.500,2.728,2.667,2.430,0.847,1.482,1.412,�k��,8.9,�L
2015/09/11,06:40,1.615,2.515,2.742,2.680,2.447,0.847,1.483,1.415,�k��,8.8,�L
2015/09/11,06:50,1.618,2.525,2.760,2.693,2.468,0.852,1.490,1.417,�k��,7.7,�L
2015/09/11,07:00,1.623,2.538,2.773,2.708,2.498,0.857,1.497,1.422,�k�k��,8.3,��
2015/09/11,07:10,1.637,2.548,2.793,2.725,2.522,0.858,1.505,1.423,�k�k��,7.4,�L
2015/09/11,07:20,1.638,2.557,2.807,2.737,2.542,0.862,1.510,1.427,�k�k��,6.7,�L
2015/09/11,07:30,1.642,2.555,2.810,2.737,2.548,0.862,1.508,1.428,�k��,7.8,�L
2015/09/11,07:40,1.642,2.555,2.820,2.747,2.563,0.860,1.512,1.428,�k��,8.2,��
2015/09/11,07:50,1.647,2.562,2.830,2.752,2.587,0.862,1.517,1.428,�k��,8.8,��
2015/09/11,08:00,1.647,2.570,2.845,2.753,2.607,0.867,1.522,1.430,�k��,6.3,��
2015/09/11,08:10,1.645,2.572,2.857,2.760,2.618,0.865,1.527,1.432,�k�k��,5.2,��
2015/09/11,08:20,1.650,2.577,2.865,2.768,2.633,0.867,1.527,1.435,�k�k��,5.3,��
2015/09/11,08:30,1.648,2.583,2.872,2.773,2.648,0.870,1.530,1.435,�k�k��,5.6,��
2015/09/11,08:40,1.652,2.583,2.877,2.780,2.663,0.868,1.532,1.437,�k�k��,4.9,��
2015/09/11,08:50,1.652,2.585,2.885,2.780,2.673,0.868,1.530,1.438,�k�k��,4.6,��
2015/09/11,09:00,1.652,2.590,2.893,2.785,2.685,0.872,1.532,1.435,�k,4.1,��
2015/09/11,09:10,1.655,2.592,2.897,2.783,2.697,0.872,1.533,1.437,�k�k��,5.1,��
2015/09/11,09:20,1.657,2.588,2.903,2.792,2.705,0.877,1.535,1.438,�k�k��,4.0,�L
2015/09/11,09:30,1.658,2.593,2.908,2.790,2.712,0.877,1.538,1.440,�k�k��,5.0,�L
2015/09/11,09:40,1.658,2.598,2.910,2.792,2.722,0.877,1.537,1.438,�k,2.6,��
2015/09/11,09:50,1.657,2.597,2.918,2.797,2.730,0.880,1.537,1.440,�k,3.8,��
2015/09/11,10:00,1.662,2.597,2.922,2.797,2.737,0.878,1.540,1.442,�k�k��,3.2,��
2015/09/11,10:10,1.662,2.600,2.927,2.802,2.745,0.883,1.540,1.442,�k,3.0,��
2015/09/11,10:20,1.663,2.603,2.932,2.808,2.745,0.883,1.542,1.440,�k,2.2,��
2015/09/11,10:30,1.663,2.602,2.937,2.808,2.757,0.885,1.543,1.443,�k,3.0,��
2015/09/11,10:40,1.663,2.605,2.940,2.810,2.757,0.887,1.543,1.443,�k,2.5,��
2015/09/11,10:50,1.667,2.607,2.948,2.813,2.763,0.883,1.547,1.443,�k,2.8,��
2015/09/11,11:00,1.668,2.608,2.950,2.815,2.768,0.885,1.548,1.443,�k,3.3,��
2015/09/11,11:10,1.667,2.612,2.953,2.817,2.773,0.887,1.547,1.445,�k,2.4,��
2015/09/11,11:20,1.672,2.608,2.955,2.818,2.777,0.887,1.548,1.445,�k,2.3,��
2015/09/11,11:30,1.668,2.612,2.960,2.823,2.782,0.888,1.545,1.445,�k,1.7,��
2015/09/11,11:40,1.668,2.615,2.963,2.827,2.787,0.887,1.550,1.448,�k�k��,1.8,��
2015/09/11,11:50,1.668,2.617,2.968,2.823,2.793,0.888,1.553,1.445,�k�k��,1.2,��
2015/09/11,12:00,1.673,2.620,2.968,2.827,2.798,0.890,1.555,1.450,�k��,1.0,��
2015/09/11,12:10,1.678,2.620,2.973,2.830,2.805,0.892,1.555,1.448,�k,1.1,��
2015/09/11,12:20,1.675,2.627,2.978,2.835,2.810,0.890,1.555,1.448,�k�k��,1.1,��
2015/09/11,12:30,1.673,2.625,2.977,2.835,2.817,0.892,1.555,1.448,�k�k��,1.4,��
2015/09/11,12:40,1.678,2.627,2.982,2.837,2.823,0.893,1.558,1.450,�k�k��,1.8,��
2015/09/11,12:50,1.680,2.628,2.987,2.837,2.823,0.895,1.557,1.448,�k��,3.0,��
2015/09/11,13:00,1.678,2.630,2.988,2.838,2.827,0.893,1.560,1.453,�k��,3.5,��
2015/09/11,13:10,1.678,2.632,2.992,2.840,2.830,0.895,1.560,1.453,�k��,4.1,��
2015/09/11,13:20,1.678,2.633,2.990,2.843,2.830,0.893,1.558,1.453,�k�k��,3.7,��
2015/09/11,13:30,1.678,2.632,2.992,2.840,2.835,0.897,1.558,1.453,�k��,3.3,��
2015/09/11,13:40,1.682,2.635,2.997,2.842,2.842,0.895,1.560,1.453,�k�k��,2.8,��
2015/09/11,13:50,1.683,2.633,3.002,2.847,2.845,0.895,1.562,1.455,�k�k��,1.9,��
2015/09/11,14:00,1.682,2.637,3.007,2.848,2.845,0.897,1.562,1.455,�k�k��,1.8,��
2015/09/11,14:10,1.683,2.633,3.007,2.850,2.852,0.898,1.565,1.457,�k��,1.0,��
2015/09/11,14:20,1.682,2.638,3.010,2.850,2.853,0.902,1.565,1.457,�k�k��,1.2,��
2015/09/11,14:30,1.683,2.640,3.013,2.848,2.858,0.902,1.563,1.458,���k��,1.3,��
2015/09/11,14:40,1.685,2.643,3.015,2.852,2.857,0.898,1.563,1.457,���k��,1.5,��
2015/09/11,14:50,1.682,2.643,3.015,2.853,2.858,0.900,1.565,1.455,���쓌,1.0,��
2015/09/11,15:00,1.680,2.645,3.013,2.853,2.860,0.900,1.567,1.455,��,1.3,��
2015/09/11,15:10,1.685,2.643,3.018,2.857,2.865,0.902,1.568,1.457,���k��,1.4,��
2015/09/11,15:20,1.687,2.643,3.023,2.853,2.865,0.900,1.568,1.457,��,1.1,��
2015/09/11,15:30,1.685,2.643,3.025,2.858,2.867,0.902,1.570,1.460,��,1.3,��
2015/09/11,15:40,1.687,2.647,3.027,2.858,2.868,0.902,1.570,1.457,���쓌,0.9,��
2015/09/11,15:50,1.687,2.650,3.025,2.857,2.873,0.902,1.570,1.460,���k��,1.3,��
2015/09/11,16:00,1.687,2.648,3.025,2.860,2.872,0.902,1.570,1.460,�k��,0.7,��
2015/09/11,16:10,1.687,2.648,3.027,2.862,2.872,0.903,1.568,1.462,-,CALM,��
2015/09/11,16:20,1.685,2.650,3.030,2.863,2.882,0.902,1.570,1.462,�k�k��,0.7,��
2015/09/11,16:30,1.692,2.648,3.027,2.862,2.878,0.902,1.570,1.460,�k�k��,1.1,��
2015/09/11,16:40,1.690,2.650,3.030,2.860,2.878,0.903,1.568,1.458,�k�k��,1.0,��
2015/09/11,16:50,1.688,2.650,3.030,2.863,2.880,0.903,1.572,1.458,�k,1.5,��
2015/09/11,17:00,1.687,2.647,3.030,2.862,2.882,0.905,1.570,1.457,�k�k��,1.5,��
2015/09/11,17:10,1.687,2.652,3.035,2.860,2.885,0.903,1.572,1.458,�k,1.1,��
2015/09/11,17:20,1.688,2.653,3.033,2.863,2.883,0.903,1.570,1.458,�k�k��,0.7,��
2015/09/11,17:30,1.692,2.650,3.037,2.860,2.885,0.900,1.568,1.460,�k�k��,0.7,��
2015/09/11,17:40,1.688,2.650,3.035,2.862,2.887,0.900,1.570,1.460,�k,1.4,��
2015/09/11,17:50,1.687,2.650,3.037,2.862,2.885,0.903,1.572,1.462,�쓌,0.7,��
2015/09/11,18:00,1.690,2.653,3.038,2.863,2.890,0.902,1.572,1.463,-,CALM,��
2015/09/11,18:10,1.690,2.653,3.037,2.862,2.892,0.905,1.570,1.463,��쓌,0.6,��
2015/09/11,18:20,1.690,2.652,3.035,2.862,2.895,0.905,1.570,1.460,��,1.5,��
2015/09/11,18:30,1.690,2.655,3.033,2.867,2.897,0.905,1.572,1.460,��,2.3,��
2015/09/11,18:40,1.687,2.650,3.033,2.867,2.898,0.905,1.572,1.458,��,2.2,��
2015/09/11,18:50,1.690,2.653,3.035,2.863,2.902,0.905,1.573,1.462,��,2.0,��
2015/09/11,19:00,1.692,2.653,3.032,2.862,2.898,0.905,1.572,1.458,��,2.3,��
2015/09/11,19:10,1.692,2.655,3.035,2.863,2.902,0.905,1.573,1.460,��,2.1,��
2015/09/11,19:20,1.692,2.655,3.038,2.865,2.900,0.903,1.572,1.458,��쐼,1.8,��
2015/09/11,19:30,1.690,2.652,3.035,2.867,2.903,0.903,1.573,1.460,��,1.9,��
2015/09/11,19:40,1.687,2.653,3.040,2.865,2.905,0.907,1.573,1.463,��쐼,1.5,��
2015/09/11,19:50,1.688,2.653,3.040,2.865,2.903,0.905,1.572,1.463,��,1.2,��
2015/09/11,20:00,1.690,2.655,3.038,2.865,2.903,0.903,1.573,1.462,�쐼,1.2,��
2015/09/11,20:10,1.692,2.650,3.037,2.867,2.903,0.907,1.573,1.458,��쐼,1.2,��
2015/09/11,20:20,1.692,2.650,3.040,2.865,2.907,0.907,1.575,1.458,�쐼,0.8,��
2015/09/11,20:30,1.688,2.650,3.040,2.867,2.908,0.905,1.575,1.460,�쐼,1.1,��
2015/09/11,20:40,1.690,2.653,3.040,2.870,2.908,0.905,1.575,1.463,-,CALM,��
2015/09/11,20:50,1.690,2.652,3.043,2.872,2.913,0.903,1.575,1.460,���k��,0.7,��
2015/09/11,21:00,1.690,2.652,3.043,2.867,2.912,0.903,1.573,1.460,�k��,1.3,��
2015/09/11,21:10,1.693,2.657,3.040,2.870,2.913,0.903,1.573,1.460,���k��,1.2,��
2015/09/11,21:20,1.692,2.653,3.040,2.870,2.913,0.905,1.575,1.463,���k��,0.7,��
2015/09/11,21:30,1.692,2.650,3.042,2.868,2.910,0.905,1.575,1.462,�k,1.0,��
2015/09/11,21:40,1.690,2.650,3.042,2.868,2.913,0.907,1.577,1.462,�k��,1.7,��
2015/09/11,21:50,1.688,2.652,3.042,2.868,2.913,0.905,1.572,1.462,�k��,1.4,��
2015/09/11,22:00,1.693,2.650,3.043,2.868,2.915,0.903,1.573,1.463,�k��,3.3,��
2015/09/11,22:10,1.690,2.653,3.042,2.867,2.917,0.908,1.573,1.457,�k��,2.6,��
2015/09/11,22:20,1.690,2.652,3.045,2.868,2.915,0.907,1.573,1.458,�k��,2.0,��
2015/09/11,22:30,1.688,2.653,3.047,2.867,2.920,0.907,1.575,1.463,���k��,2.0,��
2015/09/11,22:40,1.688,2.652,3.045,2.867,2.920,0.905,1.573,1.462,���k��,2.2,��
2015/09/11,22:50,1.692,2.652,3.043,2.867,2.917,0.907,1.575,1.463,�k��,2.5,��
2015/09/11,23:00,1.690,2.653,3.045,2.867,2.918,0.905,1.575,1.462,�k��,2.4,��
2015/09/11,23:10,1.690,2.653,3.045,2.868,2.918,0.907,1.575,1.463,���k��,2.8,��
2015/09/11,23:20,1.690,2.650,3.045,2.868,2.920,0.908,1.575,1.462,���k��,3.5,��
2015/09/11,23:30,1.692,2.655,3.045,2.870,2.918,0.905,1.573,1.460,���k��,3.8,��
2015/09/11,23:40,1.692,2.657,3.047,2.868,2.923,0.907,1.573,1.463,���k��,3.0,��
2015/09/11,23:50,1.690,2.653,3.048,2.868,2.920,0.905,1.577,1.463,���k��,2.7,��
